Vorticity
2 2 3 3 1 2 -2 -4 1 -1 -0 7 5 -1 11 4 3 4 5 5 3 4 3 1 2 12 9 14 8 9 6 4 5 5 7 8 9 8 4 6 5 5 7 8 7 6 5 6 6
2 1 2 2 17 -3 5 -8 8 5 5 4 2 1 5 3 2 4 4 4 5 5 3 2 2 9 10 13 12 8 7 4 4 5 5 6 7 9 5 4 5 6 6 7 7 6 6 6 6
2 1 3 3 -5 -2 12 5 2 3 4 3 3 1 2 2 2 2 4 4 6 4 5 3 5 6 14 11 15 9 8 5 3 5 6 4 6 8 8 6 4 6 7 6 7 6 6 5 5
2 2 1 2 8 20 -18 3 4 2 4 3 3 4 2 4 5 5 4 3 6 4 5 2 2 2 6 15 10 13 9 6 4 4 5 5 4 6 8 7 5 4 6 6 5 6 5 6 5
2 1 2 4 5 3 3 4 3 1 2 3 5 -12 3 2 5 5 5 4 6 6 5 4 2 -0 2 8 11 13 11 9 5 4 5 6 5 5 6 7 7 5 4 5 5 5 6 6 5
3 2 3 6 3 8 3 4 3 3 3 4 3 2 5 4 4 6 6 5 6 5 4 4 4 3 1 4 13 11 11 12 7 4 4 5 7 6 5 6 7 7 5 4 4 5 5 5 6
3 3 -1 4 4 2 3 4 4 3 3 3 4 3 2 5 5 7 5 5 5 5 5 4 2 3 5 4 5 13 15 9 11 5 4 5 5 5 5 5 5 7 7 5 4 4 5 5 5
4 3 1 -0 7 7 10 3 4 3 5 3 3 2 2 4 5 8 5 5 5 4 7 4 0 2 0 2 4 8 13 12 11 8 4 4 5 6 5 5 5 5 7 7 6 5 5 5 5
3 3 3 8 5 -2 6 3 8 4 3 5 5 5 5 6 10 8 4 6 5 6 7 6 2 2 2 3 4 3 11 14 10 8 6 4 4 6 6 6 5 5 5 6 7 7 7 5 4
4 3 5 -18 2 3 2 4 4 4 4 5 6 8 10 10 8 4 4 9 6 8 4 6 1 3 4 4 8 7 9 11 13 9 7 6 5 5 7 7 7 7 6 7 7 6 6 6 7
3 3 -5 2 3 3 1 5 7 5 4 5 3 7 11 9 6 3 6 5 10 6 6 1 5 6 2 3 9 9 5 12 14 11 7 6 6 6 5 7 6 -1 4 4 5 6 6 6 6
5 5 2 1 4 2 3 2 5 4 5 4 6 4 9 15 6 3 4 6 6 4 5 -2 -1 4 4 6 9 13 9 11 10 12 7 8 6 5 8 4 6 -3 5 -0 -1 5 -4 5 7
8 4 5 3 4 3 2 4 10 -2 8 3 1 4 5 13 5 -1 7 7 6 4 3 -1 5 4 5 8 6 12 15 11 11 14 8 9 5 6 8 10 2 0 8 15 8 6 10 8 2
3 4 4 3 5 4 4 4 10 -2 7 2 2 0 6 7 14 -2 7 3 3 5 4 -1 0 8 7 6 4 8 18 14 12 9 12 9 7 6 6 7 7 6 7 9 10 8 7 8 9
5 6 3 5 5 5 4 6 7 -0 2 2 -1 1 6 12 9 5 -4 5 4 4 1 2 4 8 10 4 5 5 10 15 11 9 8 7 6 8 6 8 6 5 5 7 7 6 7 6 4
9 6 5 6 7 7 4 4 6 4 5 4 6 2 6 4 15 10 -1 -2 4 -0 1 13 8 10 8 3 4 7 6 9 14 10 6 8 7 8 7 9 8 7 6 7 7 5 5 6 4
8 8 8 6 6 7 5 5 4 -2 5 4 6 5 5 3 6 15 11 6 1 1 -2 6 13 12 6 3 4 7 8 4 16 8 5 6 9 10 8 10 8 7 9 6 6 5 5 6 3
10 8 6 8 16 0 7 6 5 5 6 4 4 5 5 1 8 9 14 15 2 5 2 -1 14 13 6 4 7 10 10 7 16 6 5 7 9 9 10 7 6 6 5 3 3 2 3 1 2
7 5 5 3 13 4 9 6 3 7 5 5 6 4 4 7 2 -2 10 14 4 2 8 -1 -1 14 10 7 6 9 12 7 14 7 6 8 8 7 3 8 6 4 6 -0 1 -6 5 8 5
7 6 6 3 4 10 2 6 5 5 3 4 5 4 4 5 -1 3 1 9 15 11 4 5 3 10 12 12 11 9 11 8 12 6 8 6 6 3 6 6 7 7 4 1 3 -4 7 9 3
6 6 5 3 5 5 6 8 7 4 6 4 6 6 1 0 14 2 6 5 12 15 16 5 4 6 14 12 11 11 8 10 10 7 8 5 4 4 3 1 4 4 4 5 -0 -1 5 8 -1
9 8 6 4 4 4 3 12 1 7 7 2 6 9 3 -7 12 -4 5 5 2 15 17 12 2 6 16 12 11 11 9 12 12 7 6 8 4 4 8 6 3 2 4 4 0 -2 7 5 -0
7 6 6 5 4 4 -1 9 -8 3 6 3 1 4 3 -4 -4 8 2 8 7 1 8 15 7 6 12 14 13 12 13 13 12 8 6 6 7 4 3 2 -0 5 2 8 2 3 -1 3 8
7 6 4 3 6 8 -3 1 6 -3 10 4 6 7 2 4 -1 7 -3 6 3 4 9 0 15 8 12 17 13 10 9 12 9 7 5 7 6 1 8 5 2 4 2 1 -1 6 5 5 5
3 5 6 7 5 3 -3 7 2 3 3 6 5 5 8 10 1 -0 4 0 -4 13 10 7 15 10 10 18 15 8 10 10 10 8 6 6 6 5 4 5 3 -0 4 3 4 4 3 4 5
2 5 1 11 6 4 8 7 6 4 1 4 4 3 7 6 1 2 -3 6 3 7 10 10 15 13 7 18 15 10 8 8 8 9 8 7 6 6 3 4 4 4 4 5 2 7 5 13 5
10 1 3 9 -24 -5 -10 2 -2 3 8 5 4 7 6 5 3 0 0 2 3 7 13 8 13 17 10 16 17 9 9 7 7 8 7 5 6 4 5 4 2 4 6 6 6 5 5 6 7
-6 -11 5 -1 3 6 5 5 9 3 5 4 6 6 7 6 3 2 -1 0 10 11 11 11 14 14 18 16 13 10 8 6 5 6 5 6 6 6 6 5 6 3 3 3 5 6 6 -0 -1
4 6 0 -1 2 4 7 2 6 1 6 5 4 5 7 3 2 4 -5 10 6 6 9 13 19 15 16 15 10 7 7 5 4 6 5 7 7 4 4 4 1 3 5 6 6 7 7 7 6
10 10 -1 1 7 7 7 9 4 3 3 4 3 7 5 2 3 2 -0 2 1 7 4 -3 30 20 11 11 11 7 6 5 4 5 5 6 6 5 4 6 7 6 3 1 8 9 5 3 1
Height
5912 5913 5915 5915 5919 5919 5923 5919 5917 5914 5911 5911 5910 5909 5907 5905 5904 5905 5899 5897 5894 5892 5889 5887 5884 5880 5877 5873 5871 5869 5868 5867 5866 5864 5864 5864 5863 5862 5861 5861 5860 5858 5858 5857 5857 5857 5858 5859 5860
5911 5912 5914 5915 5918 5923 5922 5916 5915 5914 5912 5909 5908 5906 5904 5903 5902 5901 5898 5896 5894 5892 5889 5887 5885 5881 5877 5874 5872 5869 5868 5867 5866 5865 5865 5865 5864 5863 5863 5862 5861 5860 5860 5859 5859 5859 5860 5861 5862
5909 5911 5913 5915 5917 5924 5920 5916 5913 5913 5911 5909 5907 5905 5903 5901 5900 5898 5896 5895 5893 5892 5889 5887 5885 5882 5878 5875 5872 5869 5868 5868 5867 5866 5866 5866 5866 5865 5864 5864 5863 5862 5862 5861 5860 5861 5861 5862 5863
5908 5911 5913 5915 5920 5916 5915 5913 5912 5911 5911 5909 5906 5902 5902 5900 5899 5898 5896 5894 5892 5892 5889 5886 5884 5882 5879 5875 5873 5870 5869 5868 5867 5867 5866 5866 5866 5866 5866 5864 5864 5864 5863 5863 5861 5861 5861 5862 5863
5907 5909 5911 5913 5915 5913 5912 5911 5910 5909 5909 5907 5906 5901 5899 5899 5897 5896 5894 5893 5891 5891 5889 5886 5883 5881 5879 5876 5872 5871 5870 5869 5869 5868 5868 5868 5867 5867 5866 5865 5865 5864 5864 5863 5863 5863 5863 5863 5863
5904 5908 5911 5916 5914 5910 5909 5909 5908 5908 5907 5906 5905 5900 5898 5897 5896 5895 5893 5891 5890 5889 5887 5885 5883 5881 5878 5876 5873 5871 5870 5869 5869 5869 5868 5868 5868 5868 5867 5866 5865 5865 5864 5864 5864 5864 5864 5864 5864
5901 5904 5909 5914 5910 5908 5906 5907 5907 5906 5906 5905 5903 5900 5896 5896 5894 5893 5891 5889 5888 5887 5886 5884 5882 5880 5878 5876 5874 5872 5870 5869 5868 5868 5868 5868 5868 5868 5867 5866 5866 5865 5865 5864 5864 5864 5865 5864 5865
5898 5901 5903 5905 5907 5906 5904 5903 5904 5905 5903 5902 5902 5899 5894 5895 5893 5891 5889 5887 5886 5886 5884 5883 5882 5879 5877 5875 5874 5872 5870 5869 5868 5868 5867 5867 5868 5867 5867 5867 5866 5866 5865 5865 5864 5864 5864 5865 5865
5894 5898 5899 5902 5902 5902 5902 5900 5901 5902 5900 5901 5900 5897 5895 5893 5891 5889 5887 5886 5885 5884 5883 5882 5879 5878 5876 5874 5873 5872 5869 5868 5867 5866 5866 5866 5866 5867 5867 5867 5867 5866 5865 5865 5864 5864 5864 5864 5864
5889 5893 5895 5892 5894 5897 5897 5897 5897 5899 5898 5897 5896 5895 5893 5891 5889 5887 5885 5884 5883 5881 5881 5881 5879 5876 5874 5872 5871 5870 5868 5867 5865 5865 5864 5864 5865 5866 5867 5867 5867 5866 5866 5865 5865 5864 5864 5864 5863
5883 5887 5883 5887 5891 5892 5891 5893 5892 5895 5896 5894 5892 5891 5891 5889 5886 5884 5882 5880 5880 5879 5879 5879 5878 5876 5873 5870 5869 5868 5867 5865 5864 5862 5862 5862 5863 5864 5865 5866 5866 5867 5867 5866 5865 5864 5864 5863 5863
5877 5880 5880 5882 5885 5887 5887 5888 5889 5890 5892 5890 5889 5888 5888 5887 5884 5882 5880 5879 5878 5877 5876 5876 5874 5873 5871 5868 5866 5865 5864 5863 5861 5861 5860 5860 5861 5862 5863 5865 5865 5865 5865 5864 5863 5863 5862 5863 5863
5871 5872 5875 5877 5880 5881 5882 5883 5885 5886 5886 5887 5886 5886 5885 5884 5883 5881 5880 5878 5877 5875 5873 5872 5870 5869 5867 5865 5863 5862 5861 5860 5859 5858 5858 5858 5859 5859 5861 5861 5862 5862 5862 5862 5862 5862 5862 5861 5861
5860 5866 5870 5871 5874 5875 5877 5878 5879 5882 5881 5883 5882 5882 5882 5881 5879 5878 5877 5875 5874 5872 5870 5868 5866 5865 5864 5861 5860 5858 5857 5856 5856 5856 5856 5856 5857 5857 5858 5858 5859 5859 5860 5860 5861 5861 5859 5859 5859
5858 5861 5863 5866 5867 5869 5870 5873 5874 5875 5876 5878 5877 5878 5878 5877 5875 5874 5873 5872 5871 5869 5867 5865 5862 5860 5859 5857 5856 5854 5854 5853 5853 5853 5854 5854 5854 5853 5855 5856 5857 5856 5857 5857 5858 5857 5858 5857 5857
5851 5854 5857 5862 5858 5862 5864 5869 5869 5869 5872 5872 5872 5872 5873 5873 5872 5870 5870 5869 5867 5865 5862 5861 5858 5855 5854 5853 5851 5850 5850 5849 5849 5850 5851 5851 5851 5851 5851 5853 5854 5854 5855 5855 5854 5855 5854 5855 5854
5843 5848 5852 5853 5853 5854 5858 5862 5862 5864 5867 5867 5867 5866 5867 5868 5867 5866 5866 5865 5862 5860 5859 5856 5855 5851 5849 5848 5847 5845 5845 5845 5845 5845 5847 5847 5848 5848 5847 5848 5850 5851 5852 5852 5852 5851 5851 5851 5850
5837 5842 5845 5846 5843 5847 5851 5855 5854 5859 5862 5862 5863 5861 5861 5863 5860 5860 5861 5859 5858 5855 5853 5851 5848 5847 5844 5842 5841 5841 5840 5840 5840 5840 5842 5843 5843 5845 5844 5845 5846 5848 5848 5848 5847 5847 5846 5846 5845
5829 5831 5835 5839 5838 5837 5845 5847 5848 5851 5856 5857 5858 5857 5856 5857 5854 5853 5854 5853 5852 5851 5848 5846 5842 5839 5839 5836 5834 5834 5834 5834 5834 5835 5836 5838 5839 5840 5840 5840 5842 5842 5843 5843 5843 5842 5841 5841 5838
5820 5822 5829 5831 5832 5830 5837 5839 5843 5844 5849 5851 5853 5852 5852 5851 5849 5846 5847 5845 5844 5843 5841 5838 5837 5835 5834 5832 5829 5828 5828 5827 5828 5830 5832 5832 5833 5835 5836 5835 5836 5837 5837 5837 5837 5836 5835 5834 5832
5813 5816 5822 5823 5823 5822 5829 5831 5837 5839 5841 5845 5847 5847 5847 5846 5845 5842 5838 5837 5835 5835 5835 5833 5830 5828 5827 5825 5823 5823 5821 5823 5823 5825 5826 5826 5828 5828 5828 5829 5830 5830 5830 5831 5829 5829 5827 5827 5826
5803 5809 5811 5813 5814 5815 5819 5819 5827 5833 5835 5838 5839 5841 5842 5841 5839 5836 5833 5830 5828 5827 5827 5826 5824 5822 5820 5818 5818 5817 5816 5816 5817 5818 5819 5820 5822 5823 5823 5823 5822 5822 5822 5822 5822 5821 5820 5819 5818
5796 5797 5802 5804 5808 5808 5811 5808 5826 5825 5827 5830 5833 5834 5835 5834 5833 5831 5828 5824 5821 5819 5818 5819 5817 5815 5813 5812 5812 5811 5810 5810 5810 5811 5812 5813 5816 5816 5817 5816 5816 5816 5815 5814 5814 5813 5813 5811 5809
5787 5786 5792 5795 5799 5793 5803 5804 5816 5817 5817 5823 5826 5827 5827 5827 5827 5825 5822 5818 5816 5811 5810 5809 5807 5807 5805 5805 5805 5804 5803 5803 5804 5803 5805 5806 5807 5808 5810 5809 5808 5807 5807 5805 5805 5804 5802 5801 5800
5771 5775 5780 5783 5784 5785 5796 5797 5804 5807 5807 5814 5817 5818 5818 5818 5819 5818 5816 5812 5808 5805 5800 5799 5798 5796 5796 5796 5797 5796 5796 5797 5797 5797 5798 5799 5800 5800 5801 5801 5801 5800 5798 5797 5795 5794 5794 5792 5792
5760 5762 5770 5770 5775 5783 5787 5786 5794 5794 5799 5804 5806 5806 5806 5808 5810 5809 5808 5805 5802 5796 5792 5788 5787 5787 5785 5785 5786 5787 5787 5788 5789 5789 5789 5790 5790 5792 5792 5791 5791 5790 5788 5786 5785 5784 5784 5783 5783
5747 5748 5769 5765 5769 5765 5773 5781 5783 5785 5789 5791 5794 5796 5796 5796 5799 5798 5797 5795 5794 5791 5785 5780 5778 5777 5776 5775 5776 5777 5778 5779 5780 5780 5781 5781 5781 5781 5782 5782 5781 5781 5780 5778 5777 5776 5775 5773 5772
5729 5747 5743 5749 5752 5755 5763 5771 5775 5776 5775 5781 5783 5784 5786 5786 5786 5786 5783 5783 5782 5780 5776 5772 5769 5768 5767 5766 5766 5766 5768 5768 5769 5770 5770 5771 5772 5772 5772 5772 5771 5769 5767 5766 5765 5763 5761 5760 5758
5720 5723 5729 5739 5744 5746 5751 5757 5768 5767 5764 5765 5773 5773 5773 5774 5774 5772 5772 5771 5768 5768 5765 5763 5759 5758 5759 5757 5756 5755 5756 5758 5760 5762 5763 5763 5763 5762 5761 5760 5758 5757 5756 5754 5753 5751 5749 5747 5744
5705 5716 5721 5721 5733 5732 5739 5741 5754 5755 5755 5756 5761 5761 5761 5762 5760 5760 5761 5759 5757 5757 5755 5753 5751 5748 5748 5746 5746 5746 5747 5749 5750 5750 5751 5751 5751 5750 5750 5748 5746 5745 5743 5741 5739 5736 5733 5730 5727